TimeCDT,TemperatureF,Dew PointF,Humidity,Sea Level PressureIn,VisibilityMPH,Wind Direction,Wind SpeedMPH,Gust SpeedMPH,PrecipitationIn,Events,Conditions,WindDirDegrees,DateUTC
12:55 AM,50.0,45.0,83,30.07,10.0,Calm,Calm,-,N/A,,Clear,0,2013-09-03 05:55:00
1:55 AM,48.9,43.0,80,30.06,10.0,Calm,Calm,-,N/A,,Clear,0,2013-09-03 06:55:00
2:55 AM,48.9,44.1,83,30.06,10.0,Calm,Calm,-,N/A,,Clear,0,2013-09-03 07:55:00
3:55 AM,46.9,42.1,83,30.05,10.0,West,4.6,-,N/A,,Clear,270,2013-09-03 08:55:00
4:55 AM,48.0,43.0,83,30.05,10.0,Calm,Calm,-,N/A,,Clear,0,2013-09-03 09:55:00
5:55 AM,48.0,44.1,86,30.05,10.0,West,4.6,-,N/A,,Clear,270,2013-09-03 10:55:00
6:55 AM,48.9,44.1,83,30.07,10.0,West,3.5,-,N/A,,Partly Cloudy,280,2013-09-03 11:55:00
7:55 AM,55.9,48.9,77,30.06,10.0,West,6.9,-,N/A,,Partly Cloudy,270,2013-09-03 12:55:00
8:55 AM,61.0,51.1,70,30.07,10.0,West,11.5,-,N/A,,Clear,260,2013-09-03 13:55:00
9:55 AM,66.0,53.1,63,30.06,10.0,WSW,11.5,-,N/A,,Clear,250,2013-09-03 14:55:00
10:55 AM,69.1,51.1,53,30.04,10.0,West,12.7,-,N/A,,Clear,270,2013-09-03 15:55:00
11:55 AM,72.0,52.0,49,30.02,10.0,West,11.5,-,N/A,,Clear,260,2013-09-03 16:55:00
12:55 PM,73.9,52.0,46,30.01,10.0,West,11.5,-,N/A,,Clear,280,2013-09-03 17:55:00
1:55 PM,75.9,52.0,43,30.00,10.0,West,13.8,-,N/A,,Clear,260,2013-09-03 18:55:00
2:55 PM,77.0,51.1,40,29.99,10.0,West,13.8,-,N/A,,Clear,270,2013-09-03 19:55:00
3:55 PM,78.1,54.0,43,29.97,10.0,West,13.8,19.6,N/A,,Clear,280,2013-09-03 20:55:00
4:55 PM,79.0,55.9,45,29.96,10.0,West,15.0,-,N/A,,Clear,270,2013-09-03 21:55:00
5:55 PM,78.1,57.0,48,29.95,10.0,West,13.8,-,N/A,,Clear,260,2013-09-03 22:55:00
6:55 PM,75.0,57.9,55,29.95,10.0,WSW,10.4,-,N/A,,Clear,250,2013-09-03 23:55:00
7:55 PM,71.1,57.9,63,29.95,10.0,WSW,10.4,-,N/A,,Clear,250,2013-09-04 00:55:00
8:55 PM,69.1,57.0,65,29.95,10.0,WSW,10.4,-,N/A,,Clear,250,2013-09-04 01:55:00
9:55 PM,68.0,55.9,65,29.96,10.0,WSW,11.5,-,N/A,,Clear,250,2013-09-04 02:55:00
10:55 PM,66.9,57.0,70,29.97,10.0,West,11.5,-,N/A,,Clear,260,2013-09-04 03:55:00
11:55 PM,66.9,57.0,70,29.96,10.0,West,10.4,-,N/A,,Clear,260,2013-09-04 04:55:00